GW2366 Weather Reports


Display with metric or nautical units.
time (UTC)temp
F
wind
direction
speed
MPH
gust
MPH
rain 1hr
in
rain 24hr
in
rain mn
in
humidity
%
barometer
mb
20260510130525 48 27 0.0 0.0 0.00 0.00 0.00 99 1013.5
20260510130023 48 21 0.0 0.0 0.00 0.00 0.00 99 1013.6
20260510125519 48 21 0.0 0.0 0.00 0.00 0.00 99 1013.5
20260510125016 48 16 0.0 0.0 0.00 0.00 0.00 99 1013.5
20260510124512 48 8 0.0 0.0 0.00 0.00 0.00 99 1013.6
20260510124010 48 7 0.0 0.0 0.00 0.00 0.00 99 1013.6
20260510123505 48 18 0.0 0.0 0.00 0.00 0.00 99 1013.5
20260510123001 48 18 0.0 0.0 0.00 0.00 0.00 99 1013.6
20260510122456 48 18 0.0 0.0 0.00 0.00 0.00 99 1013.6
20260510121953 48 19 0.0 0.0 0.00 0.00 0.00 99 1013.4
20260510121450 48 18 0.0 0.0 0.00 0.00 0.00 99 1013.6
20260510120947 48 18 0.0 0.0 0.00 0.00 0.00 99 1013.6
20260510120445 48 18 0.0 0.0 0.00 0.00 0.00 99 1013.6
20260510115940 48 19 0.0 0.0 0.00 0.00 0.00 99 1013.5
20260510115438 47 15 0.0 0.0 0.00 0.00 0.00 99 1013.3
20260510114933 47 16 0.0 0.0 0.00 0.00 0.00 99 1013.4
20260510114430 47 14 0.0 0.0 0.00 0.00 0.00 99 1013.6
20260510113926 47 14 0.0 0.0 0.00 0.00 0.00 99 1013.8
20260510113421 47 14 0.0 0.0 0.00 0.00 0.00 99 1013.7
20260510112920 48 14 0.0 0.0 0.00 0.00 0.00 99 1013.6
20260510112417 48 14 0.0 0.0 0.00 0.00 0.00 99 1013.5
20260510111912 48 14 0.0 0.0 0.00 0.00 0.00 99 1013.6
20260510111408 48 23 0.0 0.0 0.00 0.00 0.00 99 1013.7
20260510110904 48 21 0.0 0.0 0.00 0.00 0.00 99 1013.7
20260510110400 48 7 0.0 0.0 0.00 0.00 0.00 99 1013.5
20260510105856 48 9 0.0 0.0 0.00 0.00 0.00 99 1013.6
20260510105351 48 29 0.0 0.0 0.00 0.00 0.00 99 1013.7
20260510104847 48 29 0.0 0.0 0.00 0.00 0.00 99 1013.6
20260510104344 48 30 0.0 0.0 0.00 0.00 0.00 99 1013.5
20260510103840 48 30 0.0 0.0 0.00 0.00 0.00 99 1013.6
20260510103338 48 30 0.0 0.0 0.00 0.00 0.00 99 1013.5
20260510102833 48 30 0.0 0.0 0.00 0.00 0.00 99 1013.6
20260510102329 48 30 0.0 0.0 0.00 0.00 0.00 99 1013.7
20260510101826 48 31 0.0 0.0 0.00 0.00 0.00 99 1013.5
20260510101325 48 28 0.0 0.0 0.00 0.00 0.00 99 1013.5
20260510100820 48 24 0.0 0.0 0.00 0.00 0.00 99 1013.8
20260510100318 48 24 0.0 0.0 0.00 0.00 0.00 99 1013.5
20260510095814 48 24 0.0 0.0 0.00 0.00 0.00 99 1013.5
20260510095308 48 24 0.0 0.0 0.00 0.00 0.00 99 1013.6
20260510094803 48 24 0.0 0.0 0.00 0.00 0.00 99 1013.7
20260510094258 48 24 0.0 0.0 0.00 0.00 0.00 99 1013.7
20260510093754 48 20 0.0 0.0 0.00 0.00 0.00 99 1013.6
20260510093251 48 19 0.0 0.0 0.00 0.00 0.00 99 1013.6
20260510092747 48 20 0.0 0.0 0.00 0.00 0.00 99 1013.6
20260510092243 48 19 0.0 0.0 0.00 0.00 0.00 99 1013.5
20260510091739 48 17 0.0 0.0 0.00 0.00 0.00 99 1013.6
20260510091237 48 17 0.0 0.0 0.00 0.00 0.00 99 1013.5
20260510090732 48 17 0.0 0.0 0.00 0.00 0.00 99 1013.7
20260510090230 48 16 0.0 0.0 0.00 0.00 0.00 99 1013.6
20260510085725 48 16 0.0 0.0 0.00 0.00 0.00 99 1013.7
20260510085220 48 16 0.0 0.0 0.00 0.00 0.00 99 1013.5
20260510084716 48 16 0.0 0.0 0.00 0.00 0.00 99 1013.7
20260510084213 48 16 0.0 0.0 0.00 0.00 0.00 99 1013.8
20260510083710 48 16 0.0 0.0 0.00 0.00 0.00 99 1013.9
20260510083207 48 15 0.0 0.0 0.00 0.00 0.00 99 1013.9
20260510082703 48 16 0.0 0.0 0.00 0.00 0.00 99 1013.8
20260510082159 48 16 0.0 0.0 0.00 0.00 0.00 99 1013.8
20260510081653 48 16 0.0 0.0 0.00 0.00 0.00 99 1013.8
20260510081149 48 16 0.0 0.0 0.00 0.00 0.00 99 1013.9
20260510080649 48 16 0.0 0.0 0.00 0.00 0.00 99 1013.9
20260510080146 48 16 0.0 0.0 0.00 0.00 0.00 99 1013.9
20260510075643 48 16 0.0 0.0 0.00 0.00 0.00 99 1013.8
20260510075140 48 16 0.0 0.0 0.00 0.00 0.00 99 1013.8
20260510074637 49 16 0.0 0.0 0.00 0.00 0.00 99 1013.9
20260510074133 49 16 0.0 0.0 0.00 0.00 0.00 99 1014.0
20260510073629 48 16 0.0 0.0 0.00 0.00 0.00 99 1014.0
20260510073126 49 16 0.0 0.0 0.00 0.00 0.00 99 1013.9
20260510072622 49 16 0.0 0.0 0.00 0.00 0.00 99 1013.9
20260510072119 49 16 0.0 0.0 0.00 0.00 0.00 99 1014.0
20260510071614 49 16 0.0 0.0 0.00 0.00 0.00 99 1013.8
20260510071112 49 16 0.0 0.0 0.00 0.00 0.00 99 1013.8
20260510070609 50 16 0.0 0.0 0.00 0.00 0.00 99 1013.8
20260510070106 50 16 0.0 0.0 0.00 0.00 0.00 99 1013.9
20260510065557 49 16 0.0 0.0 0.00 0.00 0.00 99 1013.7
20260510065053 49 16 0.0 0.0 0.00 0.00 0.00 99 1013.9
20260510064549 49 16 0.0 0.0 0.00 0.00 0.00 99 1013.7
20260510064046 50 16 0.0 0.0 0.00 0.00 0.00 99 1013.7
20260510063544 50 16 0.0 0.0 0.00 0.00 0.00 99 1013.6
20260510063040 50 16 0.0 0.0 0.00 0.00 0.00 99 1013.7
20260510062536 50 16 0.0 0.0 0.00 0.00 0.00 99 1013.7
20260510062032 50 16 0.0 0.0 0.00 0.00 0.00 99 1013.9
20260510061528 51 15 0.0 0.0 0.00 0.00 0.00 99 1013.6
20260510061025 51 15 0.0 0.0 0.00 0.00 0.00 99 1013.7
20260510060521 51 15 0.0 0.0 0.00 0.00 0.00 99 1013.8
20260510060017 51 15 0.0 0.0 0.00 0.00 0.00 99 1013.6
20260510055514 52 15 0.0 0.0 0.00 0.00 0.00 99 1013.9
20260510055012 51 15 0.0 0.0 0.00 0.00 0.00 99 1013.7
20260510054507 52 16 0.0 0.0 0.00 0.00 0.00 99 1013.8
20260510054003 52 16 0.0 0.0 0.00 0.00 0.00 99 1013.9
20260510053457 52 16 0.0 0.0 0.00 0.00 0.00 98 1013.7
20260510052954 53 16 0.0 0.0 0.00 0.00 0.00 98 1013.8
20260510052451 52 15 0.0 0.0 0.00 0.00 0.00 98 1013.6
20260510051947 53 15 0.0 0.0 0.00 0.00 0.00 98 1013.7
20260510051442 54 15 0.0 0.0 0.00 0.00 0.00 98 1013.7
20260510050938 53 322 0.0 0.0 0.00 0.00 0.00 98 1013.7
20260510050430 53 322 0.0 0.0 0.00 0.00 0.00 97 1013.7
20260510045928 54 322 0.0 0.0 0.00 0.00 0.00 97 1013.6
20260510045425 54 322 0.0 0.0 0.00 0.00 0.00 97 1013.7
20260510044921 55 322 0.0 0.0 0.00 0.00 0.00 97 1013.8
20260510044418 55 322 0.0 0.0 0.00 0.00 0.00 97 1013.5
20260510043915 55 322 0.0 0.0 0.00 0.00 0.00 96 1013.5
20260510043411 55 322 0.0 0.0 0.00 0.00 0.00 96 1013.6
20260510042909 55 322 0.0 0.0 0.00 0.00 0.00 96 1013.5
20260510042405 55 355 0.0 0.0 0.00 0.00 0.00 96 1013.4
20260510041900 55 355 0.0 0.0 0.00 0.00 0.00 96 1013.3
20260510041358 55 355 0.0 0.0 0.00 0.00 0.00 95 1013.3
20260510040855 55 355 0.0 0.0 0.00 0.00 0.00 94 1013.4
20260510040352 55 355 0.0 0.0 0.00 0.00 0.00 94 1013.3
20260510035848 56 355 0.0 0.0 0.00 0.00 0.00 93 1013.2
20260510035344 56 355 0.0 0.0 0.00 0.00 0.00 92 1013.0
20260510034839 57 355 0.0 0.0 0.00 0.00 0.00 91 1013.2
20260510034338 57 355 0.0 0.0 0.00 0.00 0.00 91 1013.0
20260510033834 58 353 0.0 0.0 0.00 0.00 0.00 90 1012.8
20260510033331 58 353 0.0 0.0 0.00 0.00 0.00 90 1012.9
20260510032827 59 353 0.0 0.0 0.00 0.00 0.00 89 1012.8
20260510032324 59 339 0.0 0.0 0.00 0.00 0.00 89 1012.8
20260510031819 59 4 0.0 0.0 0.00 0.00 0.00 88 1012.9
20260510031314 60 359 0.0 0.0 0.00 0.00 0.00 88 1012.9
20260510030809 60 359 0.0 0.0 0.00 0.00 0.00 86 1012.6
20260510030306 61 359 0.0 0.0 0.00 0.00 0.00 85 1012.7
20260510025804 62 359 0.0 0.0 0.00 0.00 0.00 84 1012.7
20260510025301 62 358 0.0 0.0 0.00 0.00 0.00 84 1012.8
20260510024757 62 20 1.0 1.0 0.00 0.00 0.00 83 1012.6
20260510024255 63 13 0.0 0.0 0.00 0.00 0.00 82 1012.6
20260510023750 63 357 0.0 0.0 0.00 0.00 0.00 81 1012.6
20260510023247 64 17 1.0 2.0 0.00 0.00 0.00 81 1012.5
20260510022744 64 357 1.0 2.0 0.00 0.00 0.00 80 1012.5
20260510022244 65 359 1.0 1.0 0.00 0.00 0.00 79 1012.5
20260510021743 65 1 1.0 2.0 0.00 0.00 0.00 78 1012.5
20260510021241 66 20 1.0 2.0 0.00 0.00 0.00 78 1012.5
20260510020736 66 350 0.0 0.0 0.00 0.00 0.00 77 1012.5
20260510020231 67 40 1.0 2.0 0.00 0.00 0.00 76 1012.7
20260510015728 68 346 0.0 0.0 0.00 0.00 0.00 74 1012.6
20260510015224 69 341 0.0 0.0 0.00 0.00 0.00 73 1012.4
20260510014719 69 77 1.0 1.0 0.00 0.00 0.00 73 1012.5
20260510014211 69 48 2.0 2.0 0.00 0.00 0.00 72 1012.5
20260510013706 70 69 1.0 1.0 0.00 0.00 0.00 72 1012.4
20260510013202 71 60 1.0 1.0 0.00 0.00 0.00 70 1012.5
20260510012701 71 74 3.0 3.0 0.00 0.00 0.00 69 1012.5
20260510012152 72 49 2.0 2.0 0.00 0.00 0.00 68 1012.7
20260510011646 74 18 1.0 1.0 0.00 0.00 0.00 65 1012.5
20260510011142 75 18 1.0 1.0 0.00 0.00 0.00 56 1012.3
20260510010633 76 75 0.0 1.0 0.00 0.00 0.00 61 1012.6
20260510010131 76 313 1.0 1.0 0.00 0.00 0.00 52 1012.4
20260510005625 76 318 1.0 1.0 0.00 0.00 0.00 54 1012.6
20260510005123 76 287 0.0 1.0 0.00 0.00 0.00 55 1012.5
20260510004621 75 264 1.0 2.0 0.00 0.00 0.00 55 1012.6
20260510004119 76 244 2.0 2.0 0.00 0.00 0.00 54 1012.5
20260510003616 77 299 0.0 0.0 0.00 0.00 0.00 54 1012.7
20260510003112 78 249 0.0 1.0 0.00 0.00 0.00 50 1012.8
20260510002606 78 289 2.0 2.0 0.00 0.00 0.00 50 1013.0
20260510002103 80 296 0.0 1.0 0.00 0.00 0.00 49 1013.0
20260510001600 79 283 0.0 1.0 0.00 0.00 0.00 50 1012.7
20260510001059 79 308 0.0 0.0 0.00 0.00 0.00 50 1012.8
20260510000554 79 304 0.0 0.0 0.00 0.00 0.00 50 1012.9
20260510000051 79 282 1.0 2.0 0.00 0.00 0.00 46 1012.9
20260509235547 79 273 1.0 1.0 0.00 0.00 0.00 49 1012.9
20260509235044 80 283 2.0 2.0 0.00 0.00 0.00 51 1013.0
20260509234540 79 268 3.0 5.0 0.00 0.00 0.00 49 1013.0
20260509234038 79 240 1.0 2.0 0.00 0.00 0.00 49 1013.1
20260509233536 80 289 1.0 2.0 0.00 0.00 0.00 51 1013.0
20260509233033 79 273 2.0 2.0 0.00 0.00 0.00 49 1013.3
20260509232529 78 228 3.0 3.0 0.00 0.00 0.00 50 1013.1
20260509232026 78 272 2.0 2.0 0.00 0.00 0.00 54 1013.2
20260509231522 79 254 5.0 6.0 0.00 0.00 0.00 51 1013.3
20260509231021 79 332 2.0 3.0 0.00 0.00 0.00 52 1013.3
20260509230517 78 274 2.0 2.0 0.00 0.00 0.00 52 1013.3
20260509230013 78 245 4.0 6.0 0.00 0.00 0.00 53 1013.5
20260509225509 78 263 2.0 2.0 0.00 0.00 0.00 51 1013.5
20260509225005 77 299 3.0 3.0 0.00 0.00 0.00 53 1013.5
20260509224501 77 233 2.0 2.0 0.00 0.00 0.00 51 1013.5
20260509223958 77 253 5.0 9.0 0.00 0.00 0.00 53 1013.6
20260509223454 78 289 0.0 1.0 0.00 0.00 0.00 54 1013.6
20260509222952 78 196 3.0 3.0 0.00 0.00 0.00 55 1013.6
20260509222448 78 188 3.0 3.0 0.00 0.00 0.00 58 1013.7
20260509221943 77 182 2.0 3.0 0.00 0.00 0.00 60 1013.6
20260509221440 77 275 3.0 3.0 0.00 0.00 0.00 60 1013.7
20260509220936 77 189 4.0 6.0 0.00 0.00 0.00 59 1013.9
20260509220432 76 189 2.0 2.0 0.00 0.00 0.00 60 1013.9
20260509215928 77 250 3.0 3.0 0.00 0.00 0.00 61 1013.9
20260509215424 76 256 2.0 2.0 0.00 0.00 0.00 62 1014.0
20260509214922 77 225 1.0 2.0 0.00 0.00 0.00 63 1014.0
20260509214419 76 236 3.0 3.0 0.00 0.00 0.00 65 1014.1
20260509213915 77 242 3.0 5.0 0.00 0.00 0.00 62 1014.2
20260509213416 77 229 0.0 1.0 0.00 0.00 0.00 67 1014.3
20260509212914 77 174 1.0 2.0 0.00 0.00 0.00 67 1014.2
20260509212411 76 257 3.0 5.0 0.00 0.00 0.00 65 1014.4
20260509211907 76 339 4.0 6.0 0.00 0.00 0.00 65 1014.4
20260509211403 76 292 2.0 3.0 0.00 0.00 0.00 63 1014.2
20260509210859 77 256 3.0 3.0 0.00 0.00 0.00 65 1014.4
20260509210357 77 280 0.0 0.0 0.00 0.00 0.00 64 1014.5
20260509205852 76 257 3.0 3.0 0.00 0.00 0.00 67 1014.3
20260509205347 76 200 3.0 5.0 0.00 0.00 0.00 65 1014.4
20260509204844 75 266 3.0 3.0 0.00 0.00 0.00 66 1014.5
20260509204340 75 222 3.0 5.0 0.00 0.00 0.00 66 1014.5
20260509203836 75 270 5.0 6.0 0.00 0.00 0.00 66 1014.3
20260509203332 75 230 1.0 2.0 0.00 0.00 0.00 67 1014.6
20260509202829 75 196 3.0 3.0 0.00 0.00 0.00 67 1014.6
20260509202325 75 238 2.0 3.0 0.00 0.00 0.00 69 1014.7
20260509201824 75 270 3.0 3.0 0.00 0.00 0.00 68 1014.8
20260509201321 74 216 3.0 5.0 0.00 0.00 0.00 68 1014.8
20260509200818 74 286 1.0 1.0 0.00 0.00 0.00 70 1014.8
20260509200313 74 230 3.0 3.0 0.00 0.00 0.00 68 1015.0
20260509195810 74 218 2.0 3.0 0.00 0.00 0.00 68 1014.9
20260509195306 73 97 1.0 2.0 0.00 0.00 0.00 70 1014.8
20260509194805 73 229 2.0 2.0 0.00 0.00 0.00 70 1014.8
20260509194301 73 354 1.0 1.0 0.00 0.00 0.00 72 1014.9
20260509193758 72 182 2.0 2.0 0.00 0.00 0.00 72 1014.8
20260509193258 73 260 3.0 3.0 0.00 0.00 0.00 69 1014.9
20260509192755 73 154 1.0 2.0 0.00 0.00 0.00 69 1014.9
20260509192250 72 260 1.0 2.0 0.00 0.00 0.00 71 1015.2
20260509191745 73 282 2.0 2.0 0.00 0.00 0.00 70 1015.0
20260509191242 72 252 2.0 2.0 0.00 0.00 0.00 72 1015.2
20260509190738 73 241 3.0 3.0 0.00 0.00 0.00 71 1015.1
20260509190235 73 262 1.0 2.0 0.00 0.00 0.00 70 1015.2
20260509185733 72 331 1.0 1.0 0.00 0.00 0.00 71 1015.0
20260509185229 72 273 2.0 3.0 0.00 0.00 0.00 71 1015.2
20260509184727 72 211 1.0 2.0 0.00 0.00 0.00 75 1015.2
20260509184224 71 170 2.0 2.0 0.00 0.00 0.00 72 1015.1
20260509183720 71 82 1.0 2.0 0.00 0.00 0.00 73 1015.2
20260509183215 71 221 1.0 1.0 0.00 0.00 0.00 71 1015.4
20260509182711 72 299 2.0 2.0 0.00 0.00 0.00 71 1015.2
20260509182209 71 185 3.0 3.0 0.00 0.00 0.00 71 1015.2
20260509181706 71 60 1.0 2.0 0.00 0.00 0.00 70 1015.4
20260509181204 70 271 1.0 1.0 0.00 0.00 0.00 70 1015.3
20260509180700 70 246 0.0 0.0 0.00 0.00 0.00 69 1015.3
20260509180156 69 73 2.0 2.0 0.00 0.00 0.00 73 1015.2
20260509175653 69 39 1.0 1.0 0.00 0.00 0.00 72 1015.2
20260509175150 69 45 1.0 1.0 0.00 0.00 0.00 73 1015.4
20260509174645 67 330 0.0 0.0 0.00 0.00 0.00 75 1015.4
20260509174140 67 60 3.0 3.0 0.00 0.00 0.00 73 1015.3
20260509173636 68 77 3.0 3.0 0.00 0.00 0.00 73 1015.3
20260509173132 67 68 3.0 3.0 0.00 0.00 0.00 73 1015.4
20260509172629 66 133 3.0 3.0 0.00 0.00 0.00 75 1015.3
20260509172125 67 50 3.0 3.0 0.00 0.00 0.00 75 1015.3
20260509171621 66 56 3.0 3.0 0.00 0.00 0.00 75 1015.3
20260509171117 66 210 1.0 1.0 0.00 0.00 0.00 74 1015.5
20260509170614 66 289 0.0 0.0 0.00 0.00 0.00 75 1015.5
20260509170110 66 191 2.0 3.0 0.00 0.00 0.00 75 1015.5
20260509165608 66 335 0.0 0.0 0.00 0.00 0.00 76 1015.4
20260509165104 64 180 1.0 1.0 0.00 0.00 0.00 77 1015.4
20260509164600 64 319 0.0 0.0 0.00 0.00 0.00 77 1015.4
20260509164056 63 3 0.0 1.0 0.00 0.00 0.00 79 1015.3
20260509163554 62 171 1.0 1.0 0.00 0.00 0.00 80 1015.4
20260509163055 62 307 0.0 0.0 0.00 0.00 0.00 80 1015.5
20260509162552 63 17 0.0 0.0 0.00 0.00 0.00 82 1015.3
20260509162048 62 65 1.0 2.0 0.00 0.00 0.00 80 1015.5
20260509161545 61 60 2.0 2.0 0.00 0.00 0.00 83 1015.5
20260509161039 60 53 2.0 2.0 0.00 0.00 0.00 84 1015.3
20260509160535 59 0 0.0 1.0 0.00 0.00 0.00 85 1015.4
20260509160031 60 65 3.0 3.0 0.00 0.00 0.00 84 1015.4
20260509155527 59 113 2.0 2.0 0.00 0.00 0.00 86 1015.4
20260509155023 60 76 3.0 3.0 0.00 0.00 0.00 85 1015.4
20260509154520 60 40 2.0 2.0 0.00 0.00 0.00 85 1015.3
20260509154018 60 84 2.0 2.0 0.00 0.00 0.00 85 1015.3
20260509153514 59 35 1.0 2.0 0.00 0.00 0.00 87 1015.3
20260509153011 59 91 1.0 1.0 0.00 0.00 0.00 85 1015.5
20260509152507 59 80 2.0 2.0 0.00 0.00 0.00 85 1015.4
20260509152004 59 73 3.0 3.0 0.00 0.00 0.00 86 1015.4
20260509151500 59 35 0.0 1.0 0.00 0.00 0.00 85 1015.4
20260509150959 59 75 0.0 0.0 0.00 0.00 0.00 82 1015.3
20260509150455 59 106 0.0 0.0 0.00 0.00 0.00 84 1015.2
20260509145954 58 225 0.0 0.0 0.00 0.00 0.00 84 1015.3
20260509145449 57 334 0.0 0.0 0.00 0.00 0.00 92 1015.3
20260509144944 55 236 0.0 0.0 0.00 0.00 0.00 98 1015.2
20260509144441 55 33 0.0 0.0 0.00 0.00 0.00 99 1015.1
20260509143938 55 347 0.0 0.0 0.00 0.00 0.00 99 1015.0
20260509143435 56 278 0.0 0.0 0.00 0.00 0.00 99 1015.1
20260509142931 54 278 0.0 0.0 0.00 0.00 0.00 99 1015.1
20260509142428 53 278 0.0 0.0 0.00 0.00 0.00 99 1015.0
20260509141924 52 278 0.0 0.0 0.00 0.00 0.00 99 1015.2
20260509141421 52 277 0.0 0.0 0.00 0.00 0.00 99 1015.0
20260509140918 52 278 0.0 0.0 0.00 0.00 0.00 99 1015.1
20260509140414 52 277 0.0 0.0 0.00 0.00 0.00 99 1015.0
20260509135913 50 277 0.0 0.0 0.00 0.00 0.00 99 1015.1
20260509135410 49 277 0.0 0.0 0.00 0.00 0.00 99 1014.9
20260509134907 49 277 0.0 0.0 0.00 0.00 0.00 99 1014.9
20260509134404 49 277 0.0 0.0 0.00 0.00 0.00 99 1014.8
20260509133901 48 277 0.0 0.0 0.00 0.00 0.00 99 1014.9
20260509133358 48 277 0.0 0.0 0.00 0.00 0.00 99 1014.8
20260509132856 47 277 0.0 0.0 0.00 0.00 0.00 99 1014.7
20260509132354 47 277 0.0 0.0 0.00 0.00 0.00 99 1014.6
20260509131851 46 277 0.0 0.0 0.00 0.00 0.00 99 1014.6
20260509131348 46 277 0.0 0.0 0.00 0.00 0.00 99 1014.8
20260509130845 46 277 0.0 0.0 0.00 0.00 0.00 99 1014.7